Location: Kawakawa
(35.3830°S, 174.0670°E)
Time: 12:28:17
(UTC+12:00)

Cosmos 1271 Rocket - Visible Passes

Search period start: 24 April 2019 00:00
Search period end: 04 May 2019 00:00
Orbit: 500 x 546 km, 81.2° (Epoch: 23 April)

Date Brightness Start Highest point End Pass type
(mag) Time Alt. Az. Time Alt. Az. Time Alt. Az.
28 Apr 5.4 06:21:48 10° SSE 06:25:00 23° ESE 06:28:12 10° NE visible
29 Apr 5.6 06:09:06 10° SSE 06:12:08 20° ESE 06:15:09 10° NE visible
30 Apr 5.7 05:56:26 10° SSE 05:59:15 18° ESE 06:02:04 10° ENE visible
30 Apr 4.6 19:43:48 10° NNW 19:45:13 22° NNW 19:45:13 22° NNW visible
01 May 5.8 05:43:48 10° SSE 05:46:22 16° ESE 05:48:57 10° ENE visible
01 May 2.9 19:30:56 10° NNW 19:34:06 61° NNW 19:34:06 61° NNW visible
02 May 5.9 05:31:13 10° SE 05:33:29 15° ESE 05:35:46 10° ENE visible
02 May 2.5 19:18:04 10° N 19:21:49 90° N 19:22:59 43° S visible
03 May 6.0 05:18:42 10° SE 05:20:36 13° ESE 05:22:30 10° E visible
03 May 2.5 19:05:13 10° N 19:08:58 78° E 19:11:48 17° SSE visible
